Location: Caltech
(34.1382°N, 118.1253°W)
Time: 14:02:28
(UTC-07:00)

Cosmos 2360 Rocket - Visible Passes

Search period start: 22 June 2018 00:00
Search period end: 02 July 2018 00:00
Orbit: 834 x 845 km, 71.0° (Epoch: 22 June)

Date Brightness Start Highest point End Pass type
(mag) Time Alt. Az. Time Alt. Az. Time Alt. Az.
24 Jun 4.5 05:02:10 10° SSE 05:06:23 22° E 05:10:38 10° NE visible
25 Jun 4.5 04:46:41 10° SSE 04:50:44 21° E 04:54:47 10° NE visible
26 Jun 4.5 04:31:14 10° SE 04:35:05 19° E 04:38:56 10° NE visible
27 Jun 4.6 04:15:48 10° SE 04:19:25 18° E 04:23:03 10° ENE visible
28 Jun 4.6 04:00:24 10° SE 04:03:46 16° E 04:07:09 10° ENE visible
29 Jun 4.6 03:45:01 10° SE 03:48:07 15° E 03:51:13 10° ENE visible
30 Jun 4.6 03:29:42 10° SE 03:32:28 14° E 03:35:13 10° ENE visible
30 Jun 2.3 05:10:16 10° SSW 05:15:48 62° WNW 05:21:24 10° NNE visible
01 Jul 4.6 03:14:26 10° ESE 03:16:49 13° E 03:19:11 10° ENE visible
01 Jul 2.3 04:54:32 10° SSW 05:00:06 67° WNW 05:05:44 10° NNE visible
